Regional Weather Roundup
Issued by NWS

Home | Current Version | Previous Version | Graphics & Text | Print | Product List | Glossary Off
Versions: 1 2 3 4 5 6 7 8 9 10 11 12 13 14 15 16 17 18 19 20 21 22 23 24 25 26 27 28 29 30 31 32 33 34 35 36 37 38 39 40 41 42 43 44 45 46 47 48 49 50

000
ASUS43 KDMX 282107
RWRIA

WEATHER ROUNDUP FOR IOWA
NATIONAL WEATHER SERVICE DES MOINES IA
400 PM CDT THU AUG 28 2014

NOTE: "FAIR" INDICATES FEW OR NO CLOUDS BELOW 12,000 FEET WITH NO
SIGNIFICANT WEATHER AND/OR OBSTRUCTIONS TO VISIBILITY.

* - THESE STATIONS ARE NOT NWS STATIONS...THUS NOT UNDER NWS
QUALITY CONTROL.  THEY ALSO DO NOT REPORT WEATHER SUCH
AS PRECIPITATION OR FOG.

IAZ001>003-012>014-020>022-031>034-043>046-282200-
   NORTHWEST IOWA

CITY           SKY/WX    TMP DP  RH WIND       PRES   REMARKS
CARROLL *      PTSUNNY   77  72  83 SE12      29.90F
DENISON *      MOSUNNY   79  73  83 S9        29.88S HX  82
LE MARS *      PTSUNNY   77  73  88 MISG      29.86F
ORANGE CITY *  PTSUNNY   73  70  88 E6        29.88F
SHELDON *      CLOUDY    72  70  94 E8        29.88F
SIOUX CITY       N/A     80  72  76 S6        29.86S HX  84
SPENCER        CLOUDY    70  67  90 SE10      29.91F
STORM LAKE *   PTSUNNY   75  75 100 SE9       29.90F
$$

IAZ055>058-069>071-079>083-090>094-282200-
   SOUTHWEST IOWA

CITY           SKY/WX    TMP DP  RH WIND       PRES   REMARKS
ATLANTIC *     PTSUNNY   81  72  74 S12       29.90F HX  84
AUDUBON *      SUNNY     81  73  78 S9        29.93F HX  85
CLARINDA *     SUNNY     82  75  78 VRB5      29.90F HX  89
COUNCIL BLFS * MOSUNNY   81  75  83 S9        29.88F HX  86
CRESTON *      PTSUNNY   81  73  78 S8        29.93F HX  85
HARLAN  *      PTSUNNY   81  73  78 S13       29.93F HX  85
LAMONI         MOSUNNY   83  73  72 S8        29.92S HX  89
RED OAK *      MOSUNNY   81  75  83 VRB3      29.90F HX  86
SHENANDOAH *   SUNNY     82  75  78 S3        29.89F HX  89
$$

IAZ047>049-059>061-072>074-084-282200-
   CENTRAL IOWA

CITY           SKY/WX    TMP DP  RH WIND       PRES   REMARKS
AMES           CLOUDY    76  71  85 SE12      29.93F
ANKENY *       CLOUDY    75  72  88 SE7       29.93S
CHARITON *     SUNNY     81  73  78 SE6       29.93S HX  85
DES MOINES     CLOUDY    78  72  81 SE12      29.92F HX  80
GRINNELL*      PTSUNNY   73  68  83 E12       29.97F
KNOXVILLE *    PTSUNNY   79  72  78 SE7       29.92F HX  82
MARSHALLTOWN   CLOUDY    74  69  85 SE15      29.95F
PELLA *        PTSUNNY   77  72  83 SE8       29.96F
PERRY *        CLOUDY    75  72  88 SE10      29.93S
$$

IAZ004>006-015-016-023>025-035-036-282200-
   NORTH CENTRAL IOWA

CITY           SKY/WX    TMP DP  RH WIND       PRES   REMARKS
ALGONA *         N/A     70  70 100 SE7       29.93F
CLARION *      CLOUDY    73  72  94 SE10      29.94S
ESTHERVILLE    LGT RAIN  67  66  97 SE12      29.93F FOG
FORT DODGE *   CLOUDY    73  70  88 S7        29.93F
MASON CITY     LGT RAIN  67  66  97 VRB3      29.98R FOG
FOREST CITY *  DRIZZLE   64  64 100 E6        29.95F
IOWA FALLS *   CLOUDY    72  68  88 SE10G17   29.95F
$$

IAZ007>011-017>019-026>030-037>042-050>054-066-282200-
   NORTHEAST IOWA

CITY           SKY/WX    TMP DP  RH WIND       PRES   REMARKS
CEDAR RAPIDS   CLOUDY    69  67  93 E13       29.98F
CHARLES CITY * CLOUDY    68  66  94 SE9       29.97F FOG
CLINTON *      CLOUDY    68  64  88 SE6       30.05F
DECORAH *      PTSUNNY   68  64  88 SE9       29.99F
DUBUQUE        CLOUDY    69  64  84 SE13      30.03F
MONTICELLO *   PTSUNNY   70  66  88 SE13G18   30.00F
OELWEIN *      CLOUDY    72  66  83 SE14G23   29.99S
WATERLOO       CLOUDY    72  66  81 SE13      29.96S
$$

IAZ064-065-067-068-078-282200-
   EAST CENTRAL IOWA

CITY           SKY/WX    TMP DP  RH WIND       PRES   REMARKS
DAVENPORT      LGT RAIN  68  66  93 SE6       30.04S FOG
IOWA CITY      CLOUDY    68  68 100 E9        29.99R
MT. PLEASANT * RAIN      68  66  94 SE6       30.01R
MUSCATINE *    LGT RAIN  68  66  94 E13       29.99F
QUAD CITIES    TSTM      68  66  93 N5        30.06R VSB 3/4
$$

IAZ062-063-075>077-085>089-095>099-282200-
   SOUTHEAST IOWA

CITY           SKY/WX    TMP DP  RH WIND       PRES   REMARKS
BURLINGTON     TSTM      70  69  97 W17G28    30.02R VSB 3/4
FAIRFIELD *    SUNNY     70  66  88 E16       29.98S
FORT MADISON * HVY RAIN  73  72  94 N12G25    30.07R VSB 1
KEOKUK *       HVY RAIN  72  70  94 NW15G30   30.02R
OSKALOOSA *    PTSUNNY   75  72  88 SE8       29.97R
CENTERVILLE *  MOSUNNY   75  75 100 SE7       29.95S
OTTUMWA        PTSUNNY   72  69  90 E13       29.96R
WASHINGTON *   CLOUDY    72  72 100 SE12G18   29.98R
$$

ABBREVIATIONS USED IN REMARKS
   TC - TEMPERATURES IN CELSIUS
  WCI - WIND CHILL INDEX
   HX - HEAT INDEX
  VSB - VISIBILITY
$$




USA.gov is the U.S. government's official web portal to all federal, state and local government web resources and services.